Hourly Data Report for October 13, 2014

All times are specified in Local Standard Time (LST). Add 1 hour to adjust for Daylight Saving Time where and when it is observed.

ST LEONARD CS
NEW BRUNSWICK

47°09'28.050" N
67°49'55.014" W
245.00 m
810I001
71019
WIY

Download Data

Hourly Data (October 2014)
Hourly Data Report for October 13, 2014
Temp Definition
°C
Dew Point Temp Definition
°C
Rel Hum Definition
%
Wind Dir Definition
10's deg

Wind Spd Definition
km/h
Visibility Definition
km
Stn Press Definition
kPa
Hmdx Definition


Wind Chill Definition


Weather Definition


TIME
00:00 2.7 -0.2 81   0   99.33     LegendNANA
01:00 2.8 0.1 83 19 2   99.35     LegendNANA
02:00 1.5 -0.4 88 15 1   99.37     LegendNANA
03:00 -0.6 -1.2 96 0 1   99.34   -1 LegendNANA
04:00 0.5 -0.7 92 16 2   99.38     LegendNANA
05:00 0.6 -0.5 92 20 2   99.42     LegendNANA
06:00 0.5 -0.5 94 0 1   99.43     LegendNANA
07:00 -1.7 -2.1 97 14 1   99.46   -2 LegendNANA
08:00 2.4 0.1 85 16 3   99.49     LegendNANA
09:00 5.2 1.2 75 15 2   99.48     LegendNANA
10:00 7.9 2.3 67 21 3   99.48     LegendNANA
11:00 10.6 2.6 58 21 3   99.43     LegendNANA
12:00 12.3 2.6 52 22 6   99.35     LegendNANA
13:00 14.0 2.9 47 21 6   99.29     LegendNANA
14:00 14.9 2.5 43 23 8   99.27     LegendNANA
15:00 16.1 2.1 39 22 7   99.22     LegendNANA
16:00 16.6 -0.2 32 22 6   99.18     LegendNANA
17:00 15.3 2.7 43 19 5   99.14     LegendNANA
18:00 12.6 3.3 53 16 3   99.15     LegendNANA
19:00 11.4 2.9 56 19 3   99.19     LegendNANA
20:00 9.6 2.5 61 18 3   99.16     LegendNANA
21:00 9.0 1.7 60 18 2   99.14     LegendNANA
22:00 8.5 1.6 62 17 2   99.13     LegendNANA
23:00 8.1 1.6 64 18 2   99.13     LegendNANA

Notes on Data Quality.

Legend

  • E = Estimated
  • M = Missing
  • NA = Not Available
  • ‡ = Partner data that is not subject to review by the National Climate Archives
Date modified: